Time,TemperatureF,DewpointF,PressureIn,WindDirection,WindDirectionDegrees,WindSpeedMPH,WindSpeedGustMPH,Humidity,HourlyPrecipIn,Conditions,Clouds,dailyrainin,SoftwareType,DateUTC
2013-05-30 00:13:00,71.9,67.0,29.60,SSE,150,8.0,20.0,84,0.00,,,0.00,weatherlink.com 1.10,2013-05-30 05:13:00,
2013-05-30 00:28:00,72.5,67.0,29.60,SSE,159,0.0,18.0,83,0.00,,,0.00,weatherlink.com 1.10,2013-05-30 05:28:00,
2013-05-30 00:43:00,72.9,67.0,29.59,SE,132,6.0,22.0,81,0.00,,,0.00,weatherlink.com 1.10,2013-05-30 05:43:00,
2013-05-30 00:58:00,72.7,67.0,29.60,SE,144,15.0,22.0,81,0.00,,,0.00,weatherlink.com 1.10,2013-05-30 05:58:00,
2013-05-30 01:13:00,72.6,67.0,29.60,SSE,157,18.0,23.0,81,0.00,,,0.00,weatherlink.com 1.10,2013-05-30 06:13:00,
2013-05-30 01:28:00,72.4,66.0,29.59,SE,141,5.0,20.0,81,0.00,,,0.00,weatherlink.com 1.10,2013-05-30 06:28:00,
2013-05-30 01:43:00,72.1,66.0,29.60,SSE,157,8.0,16.0,81,0.00,,,0.00,weatherlink.com 1.10,2013-05-30 06:43:00,
2013-05-30 01:58:00,71.9,66.0,29.60,SE,146,7.0,15.0,82,0.00,,,0.00,weatherlink.com 1.10,2013-05-30 06:58:00,
2013-05-30 02:13:00,71.7,66.0,29.60,SSE,164,9.0,17.0,82,0.00,,,0.00,weatherlink.com 1.10,2013-05-30 07:13:00,
2013-05-30 02:28:00,71.6,66.0,29.60,SSE,162,5.0,12.0,82,0.00,,,0.00,weatherlink.com 1.10,2013-05-30 07:28:00,
2013-05-30 02:43:00,72.0,65.0,29.59,South,177,13.0,24.0,78,0.00,,,0.00,weatherlink.com 1.10,2013-05-30 07:43:00,
2013-05-30 02:58:00,72.4,64.0,29.58,South,188,11.0,28.0,75,0.00,,,0.00,weatherlink.com 1.10,2013-05-30 07:58:00,
2013-05-30 03:13:00,71.7,64.0,29.58,South,178,11.0,26.0,76,0.00,,,0.00,weatherlink.com 1.10,2013-05-30 08:13:00,
2013-05-30 03:28:00,70.8,63.0,29.57,SSW,194,8.0,17.0,77,0.00,,,0.00,weatherlink.com 1.10,2013-05-30 08:28:00,
2013-05-30 03:43:00,70.0,63.0,29.57,SSW,206,8.0,13.0,78,0.00,,,0.00,weatherlink.com 1.10,2013-05-30 08:43:00,
2013-05-30 03:59:00,69.5,62.0,29.58,SSE,165,11.0,23.0,78,0.00,,,0.00,weatherlink.com 1.10,2013-05-30 08:59:00,
2013-05-30 04:14:00,69.0,62.0,29.57,South,184,3.0,22.0,78,0.00,,,0.00,weatherlink.com 1.10,2013-05-30 09:14:00,
2013-05-30 04:29:00,68.2,61.0,29.57,SSE,150,3.0,22.0,78,0.00,,,0.00,weatherlink.com 1.10,2013-05-30 09:29:00,
2013-05-30 04:44:00,66.8,61.0,29.57,SSE,167,10.0,20.0,81,0.00,,,0.00,weatherlink.com 1.10,2013-05-30 09:44:00,
2013-05-30 04:59:00,65.9,61.0,29.56,SE,135,3.0,19.0,83,0.00,,,0.00,weatherlink.com 1.10,2013-05-30 09:59:00,
2013-05-30 05:14:00,65.4,61.0,29.55,SSE,148,10.0,15.0,85,0.00,,,0.00,weatherlink.com 1.10,2013-05-30 10:14:00,
2013-05-30 05:29:00,65.2,61.0,29.55,SSE,157,0.0,20.0,86,0.00,,,0.00,weatherlink.com 1.10,2013-05-30 10:29:00,
2013-05-30 05:44:00,65.2,61.0,29.55,SE,145,3.0,17.0,86,0.00,,,0.00,weatherlink.com 1.10,2013-05-30 10:44:00,
2013-05-30 05:59:00,65.1,61.0,29.57,SSE,148,15.0,23.0,86,0.00,,,0.00,weatherlink.com 1.10,2013-05-30 10:59:00,
2013-05-30 06:14:00,65.0,61.0,29.59,South,175,0.0,16.0,86,0.00,,,0.00,weatherlink.com 1.10,2013-05-30 11:14:00,
2013-05-30 06:29:00,64.7,61.0,29.59,SSW,195,5.0,11.0,86,0.00,,,0.00,weatherlink.com 1.10,2013-05-30 11:29:00,
2013-05-30 06:44:00,64.8,61.0,29.59,South,191,3.0,12.0,87,0.00,,,0.00,weatherlink.com 1.10,2013-05-30 11:44:00,
2013-05-30 06:59:00,64.9,61.0,29.60,SSE,168,7.0,14.0,87,0.00,,,0.00,weatherlink.com 1.10,2013-05-30 11:59:00,
2013-05-30 07:14:00,64.7,61.0,29.62,South,169,0.0,16.0,87,0.00,,,0.00,weatherlink.com 1.10,2013-05-30 12:14:00,
2013-05-30 07:29:00,64.7,61.0,29.60,South,170,3.0,15.0,87,0.00,,,0.00,weatherlink.com 1.10,2013-05-30 12:29:00,
2013-05-30 07:44:00,64.9,61.0,29.59,SSE,156,9.0,16.0,87,0.00,,,0.00,weatherlink.com 1.10,2013-05-30 12:44:00,
2013-05-30 07:59:00,65.9,62.0,29.59,SE,145,0.0,17.0,86,0.00,,,0.00,weatherlink.com 1.10,2013-05-30 12:59:00,
2013-05-30 08:14:00,66.3,62.0,29.59,SE,132,8.0,15.0,85,0.00,,,0.00,weatherlink.com 1.10,2013-05-30 13:14:00,
2013-05-30 08:29:00,66.7,62.0,29.60,South,174,3.0,13.0,84,0.00,,,0.00,weatherlink.com 1.10,2013-05-30 13:29:00,
2013-05-30 08:44:00,67.9,63.0,29.60,South,172,1.0,17.0,84,0.00,,,0.00,weatherlink.com 1.10,2013-05-30 13:44:00,
2013-05-30 08:59:00,68.8,63.0,29.60,South,179,4.0,11.0,82,0.00,,,0.00,weatherlink.com 1.10,2013-05-30 13:59:00,
2013-05-30 09:14:00,69.7,64.0,29.61,South,171,5.0,12.0,82,0.00,,,0.00,weatherlink.com 1.10,2013-05-30 14:14:00,
2013-05-30 09:29:00,70.2,64.0,29.62,SSE,165,9.0,19.0,81,0.00,,,0.00,weatherlink.com 1.10,2013-05-30 14:29:00,
2013-05-30 09:44:00,70.5,65.0,29.62,SE,128,10.0,19.0,82,0.00,,,0.00,weatherlink.com 1.10,2013-05-30 14:44:00,
2013-05-30 09:59:00,69.1,63.0,29.62,South,173,6.0,14.0,81,0.00,,,0.00,weatherlink.com 1.10,2013-05-30 14:59:00,
2013-05-30 10:14:00,68.1,63.0,29.62,South,175,0.0,17.0,83,0.00,,,0.00,weatherlink.com 1.10,2013-05-30 15:14:00,
2013-05-30 10:29:00,67.9,63.0,29.62,SSW,202,0.0,20.0,83,0.00,,,0.00,weatherlink.com 1.10,2013-05-30 15:29:00,
2013-05-30 10:44:00,69.2,64.0,29.61,SSE,159,1.0,16.0,82,0.00,,,0.00,weatherlink.com 1.10,2013-05-30 15:44:00,
2013-05-30 10:59:00,68.3,63.0,29.62,South,189,4.0,14.0,83,0.00,,,0.00,weatherlink.com 1.10,2013-05-30 15:59:00,
2013-05-30 11:14:00,67.5,63.0,29.63,SSE,153,0.0,12.0,86,0.00,,,0.00,weatherlink.com 1.10,2013-05-30 16:14:00,
2013-05-30 11:29:00,67.3,63.0,29.63,SSE,161,5.0,13.0,87,0.00,,,0.00,weatherlink.com 1.10,2013-05-30 16:29:00,
2013-05-30 11:44:00,67.1,64.0,29.63,SSE,159,4.0,10.0,88,0.02,,,0.02,weatherlink.com 1.10,2013-05-30 16:44:00,
2013-05-30 11:59:00,66.6,64.0,29.63,SSE,158,7.0,17.0,90,0.03,,,0.03,weatherlink.com 1.10,2013-05-30 16:59:00,
2013-05-30 12:14:00,66.1,64.0,29.63,SSE,150,3.0,16.0,91,0.04,,,0.04,weatherlink.com 1.10,2013-05-30 17:14:00,
2013-05-30 12:29:00,65.9,64.0,29.63,SE,135,7.0,15.0,92,0.06,,,0.06,weatherlink.com 1.10,2013-05-30 17:29:00,
2013-05-30 12:44:00,65.6,63.0,29.61,SSE,161,0.0,15.0,92,0.05,,,0.07,weatherlink.com 1.10,2013-05-30 17:44:00,
2013-05-30 12:59:00,65.6,64.0,29.59,ESE,117,0.0,16.0,93,0.04,,,0.07,weatherlink.com 1.10,2013-05-30 17:59:00,
2013-05-30 13:14:00,65.0,63.0,29.56,SE,135,0.0,15.0,93,0.05,,,0.09,weatherlink.com 1.10,2013-05-30 18:14:00,
2013-05-30 13:29:00,65.0,63.0,29.55,ESE,117,0.0,12.0,93,0.03,,,0.09,weatherlink.com 1.10,2013-05-30 18:29:00,
2013-05-30 13:45:00,65.1,63.0,29.57,South,189,0.0,8.0,93,0.02,,,0.09,weatherlink.com 1.10,2013-05-30 18:45:00,
2013-05-30 13:59:00,65.7,64.0,29.58,South,189,4.0,10.0,94,0.03,,,0.10,weatherlink.com 1.10,2013-05-30 18:59:00,
2013-05-30 14:14:00,65.8,64.0,29.58,South,182,0.0,15.0,93,0.01,,,0.10,weatherlink.com 1.10,2013-05-30 19:14:00,
2013-05-30 14:29:00,65.6,63.0,29.57,SSW,198,5.0,15.0,92,0.01,,,0.10,weatherlink.com 1.10,2013-05-30 19:29:00,
2013-05-30 14:44:00,66.0,64.0,29.57,South,180,0.0,13.0,92,0.01,,,0.10,weatherlink.com 1.10,2013-05-30 19:44:00,
2013-05-30 15:00:00,67.2,65.0,29.58,South,181,3.0,13.0,91,0.00,,,0.10,weatherlink.com 1.10,2013-05-30 20:00:00,
2013-05-30 15:15:00,68.1,65.0,29.57,SSE,162,1.0,13.0,88,0.00,,,0.10,weatherlink.com 1.10,2013-05-30 20:15:00,
2013-05-30 15:30:00,67.6,64.0,29.56,SSE,167,0.0,10.0,87,0.00,,,0.10,weatherlink.com 1.10,2013-05-30 20:30:00,
2013-05-30 15:45:00,67.0,63.0,29.57,SSE,153,0.0,10.0,88,0.00,,,0.10,weatherlink.com 1.10,2013-05-30 20:45:00,
2013-05-30 16:00:00,66.9,63.0,29.56,SE,144,0.0,11.0,88,0.00,,,0.10,weatherlink.com 1.10,2013-05-30 21:00:00,
2013-05-30 16:15:00,67.5,65.0,29.54,SE,146,3.0,8.0,90,0.00,,,0.10,weatherlink.com 1.10,2013-05-30 21:15:00,
2013-05-30 16:30:00,68.6,64.0,29.54,SSW,211,13.0,18.0,85,0.00,,,0.10,weatherlink.com 1.10,2013-05-30 21:30:00,
2013-05-30 16:45:00,68.9,63.0,29.54,South,175,5.0,27.0,81,0.00,,,0.10,weatherlink.com 1.10,2013-05-30 21:45:00,
2013-05-30 17:00:00,69.3,63.0,29.53,SSW,206,2.0,17.0,81,0.00,,,0.10,weatherlink.com 1.10,2013-05-30 22:00:00,
2013-05-30 17:15:00,69.1,63.0,29.53,SSW,198,7.0,16.0,81,0.00,,,0.10,weatherlink.com 1.10,2013-05-30 22:15:00,
2013-05-30 17:30:00,68.5,63.0,29.54,SSW,210,7.0,14.0,82,0.00,,,0.10,weatherlink.com 1.10,2013-05-30 22:30:00,
2013-05-30 17:45:00,69.1,63.0,29.53,SSW,201,15.0,20.0,81,0.00,,,0.10,weatherlink.com 1.10,2013-05-30 22:45:00,
2013-05-30 18:00:00,69.3,63.0,29.54,SSW,195,2.0,15.0,80,0.00,,,0.10,weatherlink.com 1.10,2013-05-30 23:00:00,
2013-05-30 18:15:00,70.2,63.0,29.56,South,171,2.0,16.0,79,0.00,,,0.10,weatherlink.com 1.10,2013-05-30 23:15:00,
2013-05-30 18:30:00,70.1,63.0,29.55,South,180,4.0,17.0,78,0.00,,,0.10,weatherlink.com 1.10,2013-05-30 23:30:00,
2013-05-30 18:45:00,70.1,63.0,29.55,SW,219,5.0,16.0,78,0.00,,,0.10,weatherlink.com 1.10,2013-05-30 23:45:00,
2013-05-30 19:00:00,70.1,63.0,29.54,South,182,5.0,10.0,78,0.00,,,0.10,weatherlink.com 1.10,2013-05-31 00:00:00,
2013-05-30 19:15:00,70.0,63.0,29.55,SSW,205,7.0,17.0,77,0.00,,,0.10,weatherlink.com 1.10,2013-05-31 00:15:00,
2013-05-30 19:30:00,68.6,62.0,29.56,South,186,3.0,12.0,78,0.00,,,0.10,weatherlink.com 1.10,2013-05-31 00:30:00,
2013-05-30 19:45:00,68.3,62.0,29.57,South,184,0.0,12.0,79,0.00,,,0.10,weatherlink.com 1.10,2013-05-31 00:45:00,
2013-05-30 20:00:00,68.0,62.0,29.58,South,178,0.0,6.0,81,0.00,,,0.10,weatherlink.com 1.10,2013-05-31 01:00:00,
2013-05-30 20:15:00,67.2,62.0,29.57,South,169,2.0,7.0,82,0.00,,,0.10,weatherlink.com 1.10,2013-05-31 01:15:00,
2013-05-30 20:30:00,66.7,61.0,29.58,South,180,2.0,9.0,83,0.00,,,0.10,weatherlink.com 1.10,2013-05-31 01:30:00,
2013-05-30 20:45:00,66.0,61.0,29.58,South,180,0.0,9.0,85,0.00,,,0.10,weatherlink.com 1.10,2013-05-31 01:45:00,
2013-05-30 21:00:00,65.4,61.0,29.59,South,178,2.0,6.0,85,0.00,,,0.10,weatherlink.com 1.10,2013-05-31 02:00:00,
2013-05-30 21:15:00,64.7,61.0,29.59,South,178,0.0,6.0,86,0.00,,,0.10,weatherlink.com 1.10,2013-05-31 02:15:00,
2013-05-30 21:30:00,64.1,60.0,29.60,South,171,2.0,6.0,87,0.00,,,0.10,weatherlink.com 1.10,2013-05-31 02:30:00,
2013-05-30 21:45:00,63.6,60.0,29.60,SSE,164,0.0,1.0,88,0.00,,,0.10,weatherlink.com 1.10,2013-05-31 02:45:00,
2013-05-30 22:00:00,63.1,60.0,29.61,SSE,164,0.0,3.0,89,0.00,,,0.10,weatherlink.com 1.10,2013-05-31 03:00:00,
2013-05-30 22:15:00,62.7,60.0,29.62,South,169,0.0,8.0,90,0.00,,,0.10,weatherlink.com 1.10,2013-05-31 03:15:00,
2013-05-30 22:30:00,62.7,60.0,29.63,South,173,0.0,7.0,91,0.00,,,0.10,weatherlink.com 1.10,2013-05-31 03:30:00,
2013-05-30 22:45:00,62.7,60.0,29.63,South,173,0.0,7.0,91,0.00,,,0.10,weatherlink.com 1.10,2013-05-31 03:45:00,
2013-05-30 23:00:00,62.9,61.0,29.64,SW,219,7.0,14.0,92,0.00,,,0.10,weatherlink.com 1.10,2013-05-31 04:00:00,
2013-05-30 23:15:00,63.1,61.0,29.64,SSW,212,0.0,13.0,91,0.00,,,0.10,weatherlink.com 1.10,2013-05-31 04:15:00,
2013-05-30 23:30:00,63.2,60.0,29.64,SW,220,7.0,20.0,88,0.00,,,0.10,weatherlink.com 1.10,2013-05-31 04:30:00,
2013-05-30 23:45:00,63.5,59.0,29.63,SW,217,0.0,16.0,84,0.00,,,0.10,weatherlink.com 1.10,2013-05-31 04:45:00,